GW6149 Weather Reports


Display with metric or nautical units.
time (UTC)temp
F
wind
direction
speed
MPH
gust
MPH
rain 1hr
in
rain 24hr
in
rain mn
in
humidity
%
barometer
mb
20260504034254 49 237 2.0 6.0 0.00 0.00 0.00 55 1015.1
20260504033751 50 248 4.0 6.0 0.00 0.00 0.00 54 1015.3
20260504033249 50 33 1.0 4.0 0.00 0.00 0.00 52 1015.1
20260504032746 50 250 5.0 6.0 0.00 0.00 0.00 53 1015.4
20260504032243 50 226 2.0 8.0 0.00 0.00 0.00 54 1015.1
20260504031739 50 151 3.0 6.0 0.00 0.00 0.00 54 1015.0
20260504031237 51 231 0.0 4.0 0.00 0.00 0.00 53 1015.3
20260504030732 51 244 6.0 7.0 0.00 0.00 0.00 52 1015.1
20260504030230 50 162 2.0 6.0 0.00 0.00 0.00 53 1014.9
20260504025726 50 277 1.0 6.0 0.00 0.00 0.00 54 1015.0
20260504025223 50 243 2.0 7.0 0.00 0.00 0.00 55 1015.1
20260504024720 51 224 3.0 3.0 0.00 0.00 0.00 54 1015.3
20260504024217 50 222 6.0 8.0 0.00 0.00 0.00 54 1015.5
20260504023714 51 239 1.0 3.0 0.00 0.00 0.00 53 1015.4
20260504023209 50 227 4.0 8.0 0.00 0.00 0.00 53 1015.3
20260504022706 51 239 3.0 6.0 0.00 0.00 0.00 52 1015.1
20260504022202 51 231 3.0 6.0 0.00 0.00 0.00 53 1015.1
20260504021700 51 55 0.0 6.0 0.00 0.00 0.00 54 1015.0
20260504021156 51 208 2.0 7.0 0.00 0.00 0.00 52 1015.1
20260504020653 51 258 4.0 7.0 0.00 0.00 0.00 52 1015.3
20260504020149 51 20 2.0 6.0 0.00 0.00 0.00 53 1015.3
20260504015646 51 205 4.0 7.0 0.00 0.00 0.00 52 1015.1
20260504015143 51 238 4.0 6.0 0.00 0.00 0.00 53 1015.3
20260504014638 51 260 3.0 6.0 0.00 0.00 0.00 52 1015.3
20260504014136 51 230 1.0 4.0 0.00 0.00 0.00 52 1015.1
20260504013633 52 214 2.0 4.0 0.00 0.00 0.00 50 1015.3
20260504013130 51 230 5.0 13.0 0.00 0.00 0.00 50 1015.0
20260504012627 51 221 4.0 6.0 0.00 0.00 0.00 51 1015.1
20260504012125 52 251 9.0 10.0 0.00 0.00 0.00 49 1015.0
20260504011622 52 233 2.0 4.0 0.00 0.00 0.00 50 1014.9
20260504011118 53 121 2.0 6.0 0.00 0.00 0.00 47 1014.9
20260504010614 53 260 10.0 11.0 0.00 0.00 0.00 47 1014.8
20260504010110 54 229 7.0 9.0 0.00 0.00 0.00 47 1014.8
20260504005607 54 127 3.0 11.0 0.00 0.00 0.00 46 1014.8
20260504005104 54 246 9.0 16.0 0.00 0.00 0.00 46 1014.7
20260504004602 54 218 5.0 8.0 0.00 0.00 0.00 46 1014.8
20260504004059 54 244 6.0 19.0 0.00 0.00 0.00 46 1014.8
20260504003555 54 253 9.0 11.0 0.00 0.00 0.00 46 1014.8
20260504003052 54 234 6.0 11.0 0.00 0.00 0.00 46 1014.8
20260504002549 54 236 3.0 6.0 0.00 0.00 0.00 47 1014.5
20260504002046 54 244 7.0 10.0 0.00 0.00 0.00 45 1014.7
20260504001544 54 237 3.0 14.0 0.00 0.00 0.00 45 1014.6
20260504001039 55 247 4.0 7.0 0.00 0.00 0.00 45 1014.7
20260504000537 55 244 8.0 11.0 0.00 0.00 0.00 44 1014.4
20260504000035 55 230 6.0 13.0 0.00 0.00 0.00 44 1014.6
20260503235533 55 238 6.0 8.0 0.00 0.00 0.00 44 1014.5
20260503235029 55 255 5.0 8.0 0.00 0.00 0.00 43 1014.6
20260503234527 55 245 10.0 11.0 0.00 0.00 0.00 45 1014.6
20260503234025 56 273 4.0 11.0 0.00 0.00 0.00 42 1014.6
20260503233521 56 309 6.0 7.0 0.00 0.00 0.00 41 1014.5
20260503233017 56 240 7.0 10.0 0.00 0.00 0.00 43 1014.6
20260503232514 57 196 4.0 7.0 0.00 0.00 0.00 43 1014.5
20260503232012 57 240 15.0 24.0 0.00 0.00 0.00 43 1014.6
20260503231510 56 247 8.0 13.0 0.00 0.00 0.00 42 1014.3
20260503231006 56 245 12.0 14.0 0.00 0.00 0.00 43 1014.6
20260503230503 57 201 5.0 10.0 0.00 0.00 0.00 44 1014.7
20260503230000 57 198 8.0 9.0 0.00 0.00 0.00 42 1014.5
20260503225456 57 242 11.0 18.0 0.00 0.00 0.00 41 1014.3
20260503224952 57 235 9.0 10.0 0.00 0.00 0.00 42 1014.3
20260503224449 57 278 13.0 17.0 0.00 0.00 0.00 41 1014.4
20260503223947 57 251 5.0 8.0 0.00 0.00 0.00 41 1014.4
20260503223445 57 242 5.0 7.0 0.00 0.00 0.00 43 1014.5
20260503222940 58 241 15.0 21.0 0.00 0.00 0.00 41 1014.4
20260503222439 58 248 11.0 15.0 0.00 0.00 0.00 41 1014.4
20260503221937 58 268 11.0 16.0 0.00 0.00 0.00 40 1014.8
20260503221435 57 268 13.0 16.0 0.00 0.00 0.00 41 1014.6
20260503220931 57 249 10.0 18.0 0.00 0.00 0.00 44 1014.5
20260503220427 57 250 7.0 16.0 0.00 0.00 0.00 41 1014.5
20260503215925 57 228 11.0 11.0 0.00 0.00 0.00 42 1014.6
20260503215422 56 307 8.0 18.0 0.00 0.00 0.00 42 1014.7
20260503214919 57 254 5.0 9.0 0.00 0.00 0.00 44 1014.7
20260503214416 57 236 6.0 16.0 0.00 0.00 0.00 42 1014.8
20260503213914 56 247 6.0 9.0 0.00 0.00 0.00 42 1014.8
20260503213412 56 256 9.0 10.0 0.00 0.00 0.00 41 1014.8
20260503212908 57 266 11.0 19.0 0.00 0.00 0.00 41 1014.6
20260503212406 56 257 4.0 13.0 0.00 0.00 0.00 42 1014.5
20260503211903 56 317 2.0 19.0 0.00 0.00 0.00 41 1014.7
20260503211359 57 23 4.0 19.0 0.00 0.00 0.00 40 1014.6
20260503210854 58 287 8.0 21.0 0.00 0.00 0.00 43 1014.7
20260503210352 58 283 7.0 16.0 0.00 0.00 0.00 40 1014.6
20260503205847 59 254 6.0 13.0 0.00 0.00 0.00 40 1014.7
20260503205344 57 310 5.0 7.0 0.00 0.00 0.00 40 1014.6
20260503204840 57 297 2.0 3.0 0.00 0.00 0.00 40 1014.7
20260503204338 57 287 5.0 15.0 0.00 0.00 0.00 39 1014.6
20260503203835 57 285 7.0 16.0 0.00 0.00 0.00 40 1014.5
20260503203332 58 301 6.0 15.0 0.00 0.00 0.00 39 1014.7
20260503202829 57 261 6.0 13.0 0.00 0.00 0.00 41 1014.7
20260503202327 57 248 9.0 16.0 0.00 0.00 0.00 41 1014.8
20260503201825 57 33 4.0 21.0 0.00 0.00 0.00 39 1015.3
20260503201322 57 323 7.0 9.0 0.00 0.00 0.00 41 1014.9
20260503200820 56 262 14.0 17.0 0.00 0.00 0.00 40 1014.8
20260503200315 56 249 10.0 22.0 0.00 0.00 0.00 43 1015.0
20260503195813 56 49 4.0 17.0 0.00 0.00 0.00 41 1014.8
20260503195309 57 252 8.0 22.0 0.00 0.00 0.00 41 1015.1
20260503194807 58 252 10.0 13.0 0.00 0.00 0.00 41 1015.3
20260503194302 58 280 9.0 18.0 0.00 0.00 0.00 40 1015.3
20260503193758 58 240 6.0 24.0 0.00 0.00 0.00 38 1015.4
20260503193255 58 273 11.0 27.0 0.00 0.00 0.00 40 1015.3
20260503192751 57 255 9.0 14.0 0.00 0.00 0.00 38 1015.3
20260503192246 57 234 3.0 11.0 0.00 0.00 0.00 39 1015.5
20260503191743 55 216 15.0 22.0 0.00 0.00 0.00 41 1015.4
20260503191240 55 320 4.0 6.0 0.00 0.00 0.00 42 1015.4
20260503190737 55 328 7.0 10.0 0.00 0.00 0.00 40 1015.8
20260503190233 56 234 11.0 15.0 0.00 0.00 0.00 44 1015.4
20260503185731 57 233 5.0 8.0 0.00 0.00 0.00 45 1015.6
20260503185226 56 343 4.0 16.0 0.00 0.00 0.00 42 1015.8
20260503184721 57 292 18.0 24.0 0.00 0.00 0.00 40 1015.6
20260503184218 57 286 11.0 15.0 0.00 0.00 0.00 40 1015.8
20260503183714 56 320 5.0 15.0 0.00 0.00 0.00 41 1015.8
20260503183211 56 299 16.0 18.0 0.00 0.00 0.00 43 1015.7
20260503182709 56 321 6.0 15.0 0.00 0.00 0.00 41 1015.8
20260503182208 56 278 15.0 21.0 0.00 0.00 0.00 43 1016.0
20260503181704 56 300 11.0 17.0 0.00 0.00 0.00 43 1016.1
20260503181201 56 324 9.0 11.0 0.00 0.00 0.00 43 1015.9
20260503180657 56 341 10.0 14.0 0.00 0.00 0.00 43 1015.7
20260503180156 54 44 0.0 7.0 0.00 0.00 0.00 45 1016.3
20260503175652 55 283 12.0 15.0 0.00 0.00 0.00 43 1016.2
20260503175150 54 310 8.0 15.0 0.00 0.00 0.00 43 1016.1
20260503174646 54 295 14.0 17.0 0.00 0.00 0.00 42 1016.2
20260503174143 54 267 9.0 15.0 0.00 0.00 0.00 43 1016.3
20260503173638 54 258 18.0 22.0 0.00 0.00 0.00 45 1016.3
20260503173135 55 248 18.0 22.0 0.00 0.00 0.00 45 1015.9
20260503172632 55 273 12.0 17.0 0.00 0.00 0.00 44 1016.2
20260503172129 54 245 7.0 14.0 0.00 0.00 0.00 43 1016.3
20260503171626 54 281 15.0 16.0 0.00 0.00 0.00 44 1016.4
20260503171123 53 266 12.0 14.0 0.00 0.00 0.00 45 1016.5
20260503170620 54 317 15.0 16.0 0.00 0.00 0.00 45 1016.6
20260503170117 54 294 17.0 18.0 0.00 0.00 0.00 46 1016.7
20260503151012 50 330 6.0 16.0 0.00 0.00 0.00 47 1017.5
20260503150509 49 249 5.0 9.0 0.00 0.00 0.00 48 1017.3
20260503131401 44 303 12.0 16.0 0.00 0.00 0.00 63 1017.7
20260503130859 44 300 7.0 18.0 0.00 0.00 0.00 63 1017.5
20260503130356 43 279 7.0 8.0 0.00 0.00 0.00 65 1017.7
20260503110755 37 255 8.0 10.0 0.00 0.00 0.00 76 1017.2
20260503110252 37 298 3.0 9.0 0.00 0.00 0.00 74 1017.1
20260503100218 36 282 7.0 8.0 0.00 0.00 0.00 76 1016.5
20260503090148 37 279 4.0 6.0 0.00 0.00 0.00 74 1016.4
20260503081623 37 310 3.0 4.0 0.00 0.00 0.00 73 1016.0
20260503081120 37 280 5.0 8.0 0.00 0.00 0.00 74 1016.2
20260503080616 37 1 4.0 6.0 0.00 0.00 0.00 73 1016.1
20260503080113 37 329 4.0 8.0 0.00 0.00 0.00 73 1015.9
20260503072550 38 279 4.0 7.0 0.00 0.00 0.00 73 1015.7
20260503072048 38 279 6.0 9.0 0.00 0.00 0.00 72 1015.8
20260503071544 37 317 4.0 7.0 0.00 0.00 0.00 73 1015.8
20260503071041 37 306 3.0 3.0 0.00 0.00 0.00 73 1015.7
20260503070537 38 287 4.0 7.0 0.00 0.00 0.00 72 1015.8
20260503054951 39 33 2.0 7.0 0.00 0.00 0.00 70 1015.7
20260503054447 39 30 0.0 2.0 0.00 0.00 0.00 70 1015.7
20260503053945 39 232 3.0 6.0 0.00 0.00 0.00 70 1015.8
20260503053443 39 24 5.0 6.0 0.00 0.00 0.00 69 1015.6
20260503052939 39 339 3.0 6.0 0.00 0.00 0.00 69 1015.8
20260503052437 40 350 2.0 6.0 0.00 0.00 0.00 67 1015.6
20260503051932 39 12 7.0 13.0 0.00 0.00 0.00 68 1015.8
20260503051428 40 311 6.0 8.0 0.00 0.00 0.00 68 1016.0
20260503050926 40 239 2.0 4.0 0.00 0.00 0.00 67 1016.0
20260503050422 40 280 6.0 13.0 0.00 0.00 0.00 67 1016.0
20260503045920 40 293 6.0 7.0 0.00 0.00 0.00 67 1016.0
20260503045417 40 268 5.0 7.0 0.00 0.00 0.00 66 1016.0
20260503044913 40 298 3.0 7.0 0.00 0.00 0.00 66 1015.9
20260503044410 41 316 3.0 4.0 0.00 0.00 0.00 67 1015.9
20260503043908 41 340 6.0 8.0 0.00 0.00 0.00 66 1016.0
20260503043404 41 300 3.0 4.0 0.00 0.00 0.00 68 1015.8
20260503042900 41 336 4.0 6.0 0.00 0.00 0.00 67 1015.9
20260503042357 41 359 4.0 4.0 0.00 0.00 0.00 69 1015.9
20260503041853 41 300 4.0 7.0 0.00 0.00 0.00 68 1016.2
20260503041350 41 357 4.0 8.0 0.00 0.00 0.00 67 1016.1
20260503040848 41 22 0.0 2.0 0.00 0.00 0.00 67 1016.0
20260503040346 41 329 2.0 6.0 0.00 0.00 0.00 67 1015.9
20260503035842 41 298 6.0 7.0 0.00 0.01 0.01 70 1016.0
20260503035339 41 275 2.0 4.0 0.00 0.01 0.01 69 1016.0
20260503034837 41 321 4.0 7.0 0.00 0.01 0.01 69 1016.1